Data No, UTC Date,UTC Time,Latitude,Longitude,Course(deg),Temp(degC),Sal(psu),pH
716,2019/2/4,11:55,42-36.84N,141-37.02E,206,2.908,32.5175,8.05
717,2019/2/4,11:56,42-36.61N,141-36.88E,204,3.109,32.5414,8.06
718,2019/2/4,11:57,42-36.35N,141-36.71E,205,2.864,32.5619,8.06
719,2019/2/4,11:58,42-36.08N,141-36.57E,197,2.726,32.6997,8.06
720,2019/2/4,11:59,42-35.79N,141-36.53E,180,2.767,32.8322,8.06
721,2019/2/4,12:00,42-35.49N,141-36.56E,174,2.813,32.8682,8.07
722,2019/2/4,12:01,42-35.18N,141-36.60E,174,2.83,32.872,8.07
723,2019/2/4,12:02,42-34.87N,141-36.65E,174,2.841,32.8819,8.07
724,2019/2/4,12:03,42-34.55N,141-36.69E,174,3.209,32.8937,8.09
725,2019/2/4,12:04,42-34.23N,141-36.74E,173,3.417,32.927,8.1
726,2019/2/4,12:05,42-33.90N,141-36.79E,171,3.481,32.9725,8.1
727,2019/2/4,12:06,42-33.60N,141-36.96E,150,3.473,32.9875,8.1
728,2019/2/4,12:07,42-33.35N,141-37.23E,138,3.448,32.9973,8.09
729,2019/2/4,12:08,42-33.11N,141-37.54E,137,3.442,33.0004,8.08
730,2019/2/4,12:09,42-32.86N,141-37.86E,136,3.472,32.9996,8.07
731,2019/2/4,12:10,42-32.60N,141-38.19E,136,3.508,32.9969,8.06
732,2019/2/4,12:11,42-32.34N,141-38.51E,137,3.505,32.9928,8.06
733,2019/2/4,12:12,42-32.08N,141-38.84E,137,3.514,32.9898,8.05
734,2019/2/4,12:13,42-31.82N,141-39.15E,137,3.524,32.9878,8.04
735,2019/2/4,12:14,42-31.56N,141-39.48E,137,3.526,32.9876,8.04
736,2019/2/4,12:15,42-31.29N,141-39.81E,138,3.546,32.9884,8.04
737,2019/2/4,12:16,42-31.01N,141-40.14E,138,3.567,32.9918,8.04
738,2019/2/4,12:17,42-30.74N,141-40.46E,138,3.579,32.996,8.03
739,2019/2/4,12:18,42-30.46N,141-40.80E,138,3.58,32.9995,8.04
740,2019/2/4,12:19,42-30.19N,141-41.14E,137,3.567,33.0019,8.03
741,2019/2/4,12:20,42-29.92N,141-41.49E,135,3.556,33.0038,8.02
742,2019/2/4,12:21,42-29.65N,141-41.85E,134,3.558,33.0084,8.03
743,2019/2/4,12:22,42-29.39N,141-42.21E,134,3.553,33.0121,8.02
744,2019/2/4,12:23,42-29.14N,141-42.59E,132,3.553,33.0164,8.03
745,2019/2/4,12:24,42-28.89N,141-42.99E,129,3.549,33.0202,8.02
746,2019/2/4,12:25,42-28.65N,141-43.39E,127,3.525,33.0224,8.02
747,2019/2/4,12:26,42-28.43N,141-43.81E,124,3.487,33.0217,8.02
748,2019/2/4,12:27,42-28.22N,141-44.25E,122,3.434,33.0192,8.01
749,2019/2/4,12:28,42-28.02N,141-44.68E,121,3.388,33.0132,8.02
750,2019/2/4,12:29,42-27.83N,141-45.14E,119,3.344,33.0073,8.02
751,2019/2/4,12:30,42-27.64N,141-45.60E,117,3.321,33.0002,8.01
752,2019/2/4,12:31,42-27.45N,141-46.07E,118,3.317,32.992,8.02
753,2019/2/4,12:32,42-27.27N,141-46.50E,120,3.307,32.9887,8.02
754,2019/2/4,12:33,42-27.06N,141-46.94E,123,3.301,32.9886,8.02
755,2019/2/4,12:34,42-26.86N,141-47.39E,121,3.285,32.9861,8.02
756,2019/2/4,12:35,42-26.67N,141-47.84E,119,3.274,32.9826,8.02
757,2019/2/4,12:36,42-26.48N,141-48.29E,120,3.26,32.9814,8.03
758,2019/2/4,12:37,42-26.28N,141-48.72E,123,---,32.9803,8.04
759,2019/2/4,12:38,42-26.07N,141-49.16E,121,3.238,32.9807,8.04
760,2019/2/4,12:39,42-25.87N,141-49.61E,120,3.224,32.9808,8.04
761,2019/2/4,12:40,42-25.67N,141-50.06E,120,3.22,32.982,8.04
762,2019/2/4,12:41,42-25.47N,141-50.50E,124,3.234,32.9825,8.04
763,2019/2/4,12:42,42-25.27N,141-50.94E,119,3.233,32.9869,8.04
764,2019/2/4,12:43,42-25.08N,141-51.38E,119,3.223,32.9905,8.04
765,2019/2/4,12:44,42-24.89N,141-51.82E,122,3.217,32.9899,8.04
766,2019/2/4,12:45,42-24.68N,141-52.27E,122,3.217,32.9879,8.04
767,2019/2/4,12:46,42-24.47N,141-52.69E,124,3.232,32.9866,8.05
768,2019/2/4,12:47,42-24.26N,141-53.12E,120,3.195,32.9877,8.05
769,2019/2/4,12:48,42-24.07N,141-53.57E,121,3.008,32.9864,8.05
770,2019/2/4,12:49,42-23.88N,141-54.01E,120,2.905,32.9827,8.05
771,2019/2/4,12:50,42-23.67N,141-54.44E,123,2.964,32.9693,8.04
772,2019/2/4,12:51,42-23.48N,141-54.86E,120,2.907,32.9596,8.05
773,2019/2/4,12:52,42-23.30N,141-55.30E,120,2.895,32.9514,8.05
774,2019/2/4,12:53,42-23.10N,141-55.74E,120,2.845,32.9378,8.05
775,2019/2/4,12:54,42-22.89N,141-56.17E,124,2.829,32.928,8.05
776,2019/2/4,12:55,42-22.70N,141-56.58E,120,2.839,32.9237,8.05
777,2019/2/4,12:56,42-22.51N,141-56.99E,121,2.919,32.9244,8.05
778,2019/2/4,12:57,42-22.34N,141-57.42E,120,3.039,32.9326,8.05
779,2019/2/4,12:58,42-22.15N,141-57.84E,119,3.129,32.9522,8.04
780,2019/2/4,12:59,42-21.97N,141-58.27E,118,3.18,32.9706,8.04
781,2019/2/4,13:00,42-21.79N,141-58.69E,124,---,32.9844,8.03
782,2019/2/4,13:01,42-21.60N,141-59.10E,121,3.193,32.9887,8.02
783,2019/2/4,13:02,42-21.42N,141-59.53E,117,3.176,32.9854,8.02
784,2019/2/4,13:03,42-21.23N,141-59.96E,120,3.166,32.9801,8.02
785,2019/2/4,13:04,42-21.04N,142-00.39E,121,3.151,32.9767,8.02
786,2019/2/4,13:05,42-20.87N,142-00.82E,118,3.142,32.9702,8.03
787,2019/2/4,13:06,42-20.68N,142-01.23E,119,3.111,32.9661,8.02
788,2019/2/4,13:07,42-20.52N,142-01.67E,116,3.091,32.9605,8.02
789,2019/2/4,13:08,42-20.33N,142-02.09E,119,3.079,32.954,8.02
790,2019/2/4,13:09,42-20.15N,142-02.53E,120,3.061,32.9479,8.02
791,2019/2/4,13:10,42-19.97N,142-02.96E,118,3.048,32.942,8.03
792,2019/2/4,13:11,42-19.79N,142-03.37E,118,3.028,32.9354,8.02
793,2019/2/4,13:12,42-19.61N,142-03.78E,121,3.02,32.9301,8.01
794,2019/2/4,13:13,42-19.43N,142-04.21E,120,2.937,32.9254,8.02
795,2019/2/4,13:14,42-19.24N,142-04.63E,120,2.891,32.9194,8.01
796,2019/2/4,13:15,42-19.06N,142-05.04E,121,2.86,32.908,8.01
797,2019/2/4,13:16,42-18.87N,142-05.46E,119,2.844,32.8985,8.01
798,2019/2/4,13:17,42-18.70N,142-05.89E,118,2.809,32.8932,8.02
799,2019/2/4,13:18,42-18.52N,142-06.32E,118,2.775,32.8877,8.01
800,2019/2/4,13:19,42-18.35N,142-06.75E,117,2.752,32.8776,8.02
801,2019/2/4,13:20,42-18.18N,142-07.18E,118,2.714,32.8698,8.02
802,2019/2/4,13:21,42-17.99N,142-07.64E,118,2.652,32.8596,8.01
803,2019/2/4,13:22,42-17.81N,142-08.06E,118,2.538,32.8457,8.01
804,2019/2/4,13:23,42-17.62N,142-08.50E,119,2.449,32.8304,8.02
805,2019/2/4,13:24,42-17.43N,142-08.91E,123,2.44,32.8132,8.02
806,2019/2/4,13:25,42-17.24N,142-09.32E,123,2.45,32.7999,8.01
807,2019/2/4,13:26,42-17.05N,142-09.73E,120,2.475,32.7969,8.02
808,2019/2/4,13:27,42-16.87N,142-10.16E,117,2.507,32.7969,8.02
809,2019/2/4,13:28,42-16.69N,142-10.59E,117,2.509,32.8021,8.02
810,2019/2/4,13:29,42-16.51N,142-11.00E,123,2.418,32.8047,8.02
811,2019/2/4,13:30,42-16.34N,142-11.42E,116,2.332,32.7966,8.01
812,2019/2/4,13:31,42-16.14N,142-11.81E,125,2.346,32.7792,8.01
813,2019/2/4,13:32,42-15.91N,142-12.16E,135,2.356,32.7736,8.01
814,2019/2/4,13:33,42-15.65N,142-12.48E,138,2.371,32.7752,8.01
815,2019/2/4,13:34,42-15.40N,142-12.82E,134,2.385,32.7762,8.01
816,2019/2/4,13:35,42-15.15N,142-13.18E,131,2.407,32.7775,8.01
817,2019/2/4,13:36,42-14.92N,142-13.53E,133,2.425,32.7782,8.01
818,2019/2/4,13:37,42-14.67N,142-13.89E,133,2.43,32.7788,8.01
819,2019/2/4,13:38,42-14.42N,142-14.22E,132,2.437,32.7796,8.01
820,2019/2/4,13:39,42-14.18N,142-14.59E,133,2.435,32.7793,8.01
821,2019/2/4,13:40,42-13.95N,142-14.95E,127,2.446,32.7791,8.01
822,2019/2/4,13:41,42-13.77N,142-15.36E,119,2.451,32.7788,8.01
823,2019/2/4,13:42,42-13.58N,142-15.77E,120,2.452,32.7779,8.02
824,2019/2/4,13:43,42-13.39N,142-16.19E,121,2.449,32.7778,8.01
825,2019/2/4,13:44,42-13.21N,142-16.63E,117,2.466,32.777,8.01
826,2019/2/4,13:45,42-13.02N,142-17.07E,118,2.474,32.7773,8.01
827,2019/2/4,13:46,42-12.84N,142-17.50E,121,2.473,32.7785,8.01
828,2019/2/4,13:47,42-12.66N,142-17.91E,121,2.47,32.7792,8.01
829,2019/2/4,13:48,42-12.48N,142-18.32E,121,2.472,32.7796,8.02
830,2019/2/4,13:49,42-12.30N,142-18.75E,118,2.467,32.779,8.02
831,2019/2/4,13:50,42-12.11N,142-19.18E,118,2.467,32.7787,8.01
832,2019/2/4,13:51,42-11.93N,142-19.61E,119,2.462,32.7776,8.02
833,2019/2/4,13:52,42-11.74N,142-20.01E,123,2.456,32.7767,8.01
834,2019/2/4,13:53,42-11.56N,142-20.43E,117,2.447,32.7757,8.01
835,2019/2/4,13:54,42-11.39N,142-20.85E,121,2.45,32.7738,8.02
836,2019/2/4,13:55,42-11.20N,142-21.27E,121,2.452,32.7706,8.02
837,2019/2/4,13:56,42-11.01N,142-21.68E,118,2.458,32.7714,8.02
838,2019/2/4,13:57,42-10.82N,142-22.11E,122,2.452,32.7725,8.02
839,2019/2/4,13:58,42-10.62N,142-22.53E,122,2.457,32.7721,8.02
840,2019/2/4,13:59,42-10.42N,142-22.96E,122,2.464,32.7741,8.03
841,2019/2/4,14:00,42-10.24N,142-23.36E,120,2.462,32.777,8.03
842,2019/2/4,14:01,42-10.07N,142-23.79E,116,2.461,32.7804,8.02
843,2019/2/4,14:02,42-09.87N,142-24.23E,124,2.447,32.784,8.01
844,2019/2/4,14:03,42-09.70N,142-24.65E,117,2.423,32.7869,8.02
845,2019/2/4,14:04,42-09.52N,142-25.08E,117,2.416,32.7913,8.02
846,2019/2/4,14:05,42-09.31N,142-25.48E,123,2.385,32.795,8.02
847,2019/2/4,14:06,42-09.15N,142-25.90E,115,2.334,32.7993,8.02
848,2019/2/4,14:07,42-08.97N,142-26.33E,120,2.26,32.7926,8.02
849,2019/2/4,14:08,42-08.80N,142-26.74E,115,2.195,32.7739,8.02
850,2019/2/4,14:09,42-08.64N,142-27.19E,116,2.188,32.7506,8.03
851,2019/2/4,14:10,42-08.46N,142-27.59E,123,2.219,32.7221,8.02
852,2019/2/4,14:11,42-08.27N,142-28.01E,121,2.25,32.7112,8.02
853,2019/2/4,14:12,42-08.07N,142-28.44E,122,2.203,32.7077,8.02
854,2019/2/4,14:13,42-07.88N,142-28.88E,121,2.227,32.7071,8.02
855,2019/2/4,14:14,42-07.70N,142-29.28E,122,2.204,32.7026,8.02
856,2019/2/4,14:15,42-07.50N,142-29.70E,120,2.187,32.6898,8.02
857,2019/2/4,14:16,42-07.32N,142-30.13E,118,2.166,32.6827,8.02
858,2019/2/4,14:17,42-07.15N,142-30.54E,119,2.142,32.6782,8.02
859,2019/2/4,14:18,42-06.96N,142-30.96E,123,2.133,32.6735,8.03
860,2019/2/4,14:19,42-06.77N,142-31.37E,120,2.092,32.6683,8.02
861,2019/2/4,14:20,42-06.59N,142-31.79E,123,2.063,32.6605,8.02
862,2019/2/4,14:21,42-06.39N,142-32.20E,120,2.033,32.6539,8.02
863,2019/2/4,14:22,42-06.22N,142-32.63E,120,2.014,32.648,8.04
864,2019/2/4,14:23,42-06.01N,142-33.05E,123,1.983,32.6429,8.04
865,2019/2/4,14:24,42-05.81N,142-33.49E,124,1.949,32.6368,8.02
866,2019/2/4,14:25,42-05.64N,142-33.88E,116,1.995,32.6327,8.04
867,2019/2/4,14:26,42-05.45N,142-34.30E,121,2.003,32.6311,8.03
868,2019/2/4,14:27,42-05.28N,142-34.72E,117,2.049,32.6341,8.03
869,2019/2/4,14:28,42-05.07N,142-35.15E,125,2.067,32.6378,8.04
870,2019/2/4,14:29,42-04.89N,142-35.57E,121,2.073,32.6403,8.04
871,2019/2/4,14:30,42-04.71N,142-35.97E,119,2.061,32.6454,8.04
872,2019/2/4,14:31,42-04.55N,142-36.38E,118,2.071,32.6461,8.04
873,2019/2/4,14:32,42-04.38N,142-36.80E,119,2.06,32.6463,8.04
874,2019/2/4,14:33,42-04.20N,142-37.23E,120,2.054,32.6462,8.04
875,2019/2/4,14:34,42-04.01N,142-37.64E,120,2.06,32.6445,8.04
876,2019/2/4,14:35,42-03.83N,142-38.08E,119,2.05,32.6443,8.03
877,2019/2/4,14:36,42-03.67N,142-38.48E,119,2.058,32.6435,8.04
878,2019/2/4,14:37,42-03.49N,142-38.89E,118,2.044,32.6435,8.04
879,2019/2/4,14:38,42-03.31N,142-39.33E,120,2.022,32.6433,8.04
880,2019/2/4,14:39,42-03.15N,142-39.73E,118,2.017,32.6424,8.04
881,2019/2/4,14:40,42-02.97N,142-40.14E,120,2.014,32.6402,8.03
882,2019/2/4,14:41,42-02.80N,142-40.55E,120,2.013,32.64,8.04
883,2019/2/4,14:42,42-02.59N,142-40.99E,120,2,32.6388,8.04
884,2019/2/4,14:43,42-02.42N,142-41.40E,119,2.006,32.6398,8.04
885,2019/2/4,14:44,42-02.25N,142-41.82E,118,1.99,32.6391,8.04
886,2019/2/4,14:45,42-02.06N,142-42.25E,121,1.986,32.6387,8.04
887,2019/2/4,14:46,42-01.86N,142-42.69E,121,1.981,32.6379,8.03
888,2019/2/4,14:47,42-01.68N,142-43.08E,122,1.98,32.6368,8.04
889,2019/2/4,14:48,42-01.48N,142-43.51E,122,1.98,32.6376,8.04
890,2019/2/4,14:49,42-01.27N,142-43.92E,125,1.979,32.6382,8.04
891,2019/2/4,14:50,42-01.07N,142-44.33E,120,1.983,32.6375,8.04
892,2019/2/4,14:51,42-00.86N,142-44.73E,123,1.979,32.6374,8.04
893,2019/2/4,14:52,42-00.68N,142-45.15E,121,1.982,32.6372,8.04
894,2019/2/4,14:53,42-00.49N,142-45.56E,122,1.974,32.6393,8.04
895,2019/2/4,14:54,42-00.30N,142-45.99E,122,1.961,32.6392,8.04
896,2019/2/4,14:55,42-00.10N,142-46.40E,125,1.942,32.6374,8.04
897,2019/2/4,14:56,41-59.90N,142-46.78E,123,1.892,32.6356,8.04
898,2019/2/4,14:57,41-59.70N,142-47.19E,122,1.85,32.6326,8.04
899,2019/2/4,14:58,41-59.51N,142-47.60E,120,1.772,32.6256,8.04
900,2019/2/4,14:59,41-59.30N,142-47.99E,128,1.716,32.6197,8.04
901,2019/2/4,15:00,41-59.11N,142-48.40E,120,1.688,32.6079,8.04
902,2019/2/4,15:01,41-58.91N,142-48.81E,125,1.682,32.5998,8.04
903,2019/2/4,15:02,41-58.71N,142-49.21E,121,1.688,32.5947,8.04
904,2019/2/4,15:03,41-58.52N,142-49.63E,120,1.698,32.5918,8.05
905,2019/2/4,15:04,41-58.34N,142-50.05E,121,1.708,32.5915,8.04
906,2019/2/4,15:05,41-58.13N,142-50.43E,127,1.717,32.5943,8.04
907,2019/2/4,15:06,41-57.92N,142-50.85E,124,1.732,32.5966,8.05
908,2019/2/4,15:07,41-57.71N,142-51.25E,125,1.751,32.5993,8.04
909,2019/2/4,15:08,41-57.53N,142-51.66E,118,1.777,32.603,8.04
910,2019/2/4,15:09,41-57.38N,142-52.08E,115,1.825,32.6061,8.05
911,2019/2/4,15:10,41-57.20N,142-52.51E,121,1.838,32.6097,8.05
912,2019/2/4,15:11,41-57.01N,142-52.94E,121,1.835,32.6119,8.05
913,2019/2/4,15:12,41-56.81N,142-53.37E,122,1.841,32.6111,8.05
914,2019/2/4,15:13,41-56.63N,142-53.78E,119,1.838,32.6114,8.05
915,2019/2/4,15:14,41-56.43N,142-54.23E,120,1.857,32.6114,8.04
916,2019/2/4,15:15,41-56.26N,142-54.65E,117,1.859,32.6114,8.05
917,2019/2/4,15:16,41-56.10N,142-55.08E,117,1.871,32.6134,8.05
918,2019/2/4,15:17,41-55.91N,142-55.52E,123,1.852,32.6137,8.05
919,2019/2/4,15:18,41-55.73N,142-55.95E,119,1.865,32.6145,8.04
920,2019/2/4,15:19,41-55.54N,142-56.39E,118,1.891,32.6152,8.05
921,2019/2/4,15:20,41-55.39N,142-56.81E,116,1.896,32.6167,8.04
922,2019/2/4,15:21,41-55.22N,142-57.25E,118,1.923,32.6197,8.05
923,2019/2/4,15:22,41-55.04N,142-57.69E,117,1.921,32.622,8.04
924,2019/2/4,15:23,41-54.83N,142-58.17E,121,1.831,32.6256,8.04
925,2019/2/4,15:24,41-54.68N,142-58.56E,116,1.807,32.6253,8.04
926,2019/2/4,15:25,41-54.49N,142-58.99E,122,1.799,32.6213,8.04
927,2019/2/4,15:26,41-54.31N,142-59.43E,117,1.795,32.6187,8.04
928,2019/2/4,15:27,41-54.13N,142-59.86E,120,1.784,32.6153,8.05
929,2019/2/4,15:28,41-53.98N,143-00.30E,113,1.769,32.609,8.05
930,2019/2/4,15:29,41-53.81N,143-00.73E,118,1.766,32.6058,8.05
931,2019/2/4,15:30,41-53.61N,143-01.13E,123,1.758,32.6022,8.05
932,2019/2/4,15:31,41-53.44N,143-01.57E,118,1.73,32.6011,8.05
933,2019/2/4,15:32,41-53.25N,143-02.02E,120,1.704,32.5973,8.05
934,2019/2/4,15:33,41-53.07N,143-02.45E,120,1.683,32.5941,8.05
935,2019/2/4,15:34,41-52.92N,143-02.84E,116,1.667,32.5883,8.05
936,2019/2/4,15:35,41-52.74N,143-03.23E,126,1.651,32.5813,8.05
937,2019/2/4,15:36,41-52.54N,143-03.52E,130,1.633,32.5759,8.05
938,2019/2/4,15:37,41-52.38N,143-03.88E,118,1.613,32.569,8.04
939,2019/2/4,15:38,41-52.23N,143-04.23E,121,1.597,32.5643,8.04
940,2019/2/4,15:39,41-52.05N,143-04.58E,123,1.583,32.5603,8.05
941,2019/2/4,15:40,41-51.91N,143-04.93E,119,1.56,32.5588,8.04
942,2019/2/4,15:41,41-51.74N,143-05.30E,122,1.528,32.5586,8.05
943,2019/2/4,15:42,41-51.59N,143-05.64E,119,1.502,32.5606,8.05
944,2019/2/4,15:43,41-51.42N,143-05.99E,123,1.489,32.5617,8.04
945,2019/2/4,15:44,41-51.25N,143-06.31E,122,1.504,32.5616,8.05
946,2019/2/4,15:45,41-51.11N,143-06.67E,117,1.56,32.5619,8.04
947,2019/2/4,15:46,41-50.95N,143-07.07E,118,1.672,32.5663,8.04
948,2019/2/4,15:47,41-50.82N,143-07.43E,117,1.78,32.5786,8.05
949,2019/2/4,15:48,41-50.68N,143-07.79E,118,1.887,32.5987,8.04
950,2019/2/4,15:49,41-50.54N,143-08.14E,118,1.959,32.6231,8.04
951,2019/2/4,15:50,41-50.39N,143-08.50E,118,1.962,32.6539,8.04
952,2019/2/4,15:51,41-50.26N,143-08.88E,114,1.963,32.6676,8.03
953,2019/2/4,15:52,41-50.14N,143-09.27E,111,1.954,32.6685,8.02
954,2019/2/4,15:53,41-50.04N,143-09.68E,104,1.944,32.6641,8.03
955,2019/2/4,15:54,41-50.00N,143-10.09E,100,1.964,32.6618,8.02
956,2019/2/4,15:55,41-49.95N,143-10.46E,99,1.99,32.6666,8.02
957,2019/2/4,15:56,41-49.90N,143-10.89E,98,2.007,32.6753,8.02
958,2019/2/4,15:57,41-49.86N,143-11.27E,98,1.995,32.6797,8.02
959,2019/2/4,15:58,41-49.82N,143-11.68E,98,1.896,32.6807,8.02
960,2019/2/4,15:59,41-49.76N,143-12.07E,101,1.73,32.6726,8.02
961,2019/2/4,16:00,41-49.72N,143-12.46E,99,1.519,32.6543,8.03
962,2019/2/4,16:01,41-49.65N,143-12.83E,104,1.369,32.6266,8.02
963,2019/2/4,16:02,41-49.63N,143-13.23E,89,1.258,32.5966,8.04
964,2019/2/4,16:03,41-49.65N,143-13.62E,87,---,32.5706,8.04
965,2019/2/4,16:04,41-49.62N,143-13.98E,95,1.14,32.5513,8.04
966,2019/2/4,16:05,41-49.59N,143-14.37E,95,1.185,32.5272,8.04
967,2019/2/4,16:06,41-49.56N,143-14.74E,98,1.191,32.5324,8.04
968,2019/2/4,16:07,41-49.52N,143-15.12E,98,1.184,32.5437,8.04
969,2019/2/4,16:08,41-49.48N,143-15.52E,93,1.191,32.5445,8.04
970,2019/2/4,16:09,41-49.52N,143-15.89E,78,1.173,32.543,8.04
971,2019/2/4,16:10,41-49.56N,143-16.25E,83,1.168,32.5412,8.03
972,2019/2/4,16:11,41-49.59N,143-16.61E,84,1.145,32.538,8.04
973,2019/2/4,16:12,41-49.63N,143-16.97E,81,1.161,32.535,8.04
974,2019/2/4,16:13,41-49.67N,143-17.35E,79,1.185,32.5375,8.04
975,2019/2/4,16:14,41-49.72N,143-17.68E,78,1.18,32.5542,8.04
976,2019/2/4,16:15,41-49.79N,143-18.01E,71,1.169,32.5687,8.04
977,2019/2/4,16:16,41-49.87N,143-18.30E,74,1.083,32.5783,8.04
978,2019/2/4,16:17,41-49.90N,143-18.62E,81,1.086,32.5814,8.04
979,2019/2/4,16:18,41-49.95N,143-18.94E,77,1.106,32.58,8.02
980,2019/2/4,16:19,41-49.99N,143-19.25E,78,1.112,32.5788,8.02
981,2019/2/4,16:20,41-50.04N,143-19.60E,76,1.102,32.5775,8.04
982,2019/2/4,16:21,41-50.11N,143-19.88E,73,1.094,32.5719,8.02
983,2019/2/4,16:22,41-50.22N,143-20.19E,55,1.092,32.5641,8.02
984,2019/2/4,16:23,41-50.34N,143-20.40E,49,1.093,32.5595,8.03
985,2019/2/4,16:24,41-50.48N,143-20.63E,53,1.093,32.5578,8.02
986,2019/2/4,16:25,41-50.58N,143-20.89E,60,1.094,32.5606,8.02
987,2019/2/4,16:26,41-50.72N,143-21.14E,54,1.081,32.5625,8.03
988,2019/2/4,16:27,41-50.84N,143-21.36E,51,1.058,32.5624,8.02
989,2019/2/4,16:28,41-50.99N,143-21.59E,52,1.044,32.56,8.02
990,2019/2/4,16:29,41-51.12N,143-21.85E,57,1.044,32.5575,8.02
991,2019/2/4,16:30,41-51.25N,143-22.11E,51,1.021,32.56,8.02
992,2019/2/4,16:31,41-51.39N,143-22.35E,52,1.007,32.5606,8.02
993,2019/2/4,16:32,41-51.57N,143-22.56E,33,0.992,32.5587,8.02
994,2019/2/4,16:33,41-51.75N,143-22.75E,41,0.985,32.5559,8.02
995,2019/2/4,16:34,41-51.96N,143-23.01E,41,0.975,32.5547,8.02
996,2019/2/4,16:35,41-52.20N,143-23.22E,34,---,32.5524,8.02
997,2019/2/4,16:36,41-52.37N,143-23.43E,44,---,32.5511,8.02
998,2019/2/4,16:37,41-52.59N,143-23.65E,34,0.947,32.5483,8.02
999,2019/2/4,16:38,41-52.81N,143-23.86E,36,0.943,32.5471,8.03
1000,2019/2/4,16:39,41-53.05N,143-24.10E,34,0.939,32.5463,8.02
1001,2019/2/4,16:40,41-53.28N,143-24.30E,34,0.93,32.5464,8.03
1002,2019/2/4,16:41,41-53.53N,143-24.50E,29,0.915,32.5463,8.02
1003,2019/2/4,16:42,41-53.80N,143-24.71E,29,0.877,32.5452,8.03
1004,2019/2/4,16:43,41-54.05N,143-24.93E,32,0.812,32.5433,8.03
1005,2019/2/4,16:44,41-54.32N,143-25.11E,25,0.743,32.5408,8.02
1006,2019/2/4,16:45,41-54.62N,143-25.24E,15,0.7,32.53,8.02
1007,2019/2/4,16:46,41-54.90N,143-25.40E,28,0.697,32.5206,8.02
1008,2019/2/4,16:47,41-55.20N,143-25.64E,30,0.688,32.5146,8.03
1009,2019/2/4,16:48,41-55.48N,143-25.84E,24,0.655,32.5116,8.02
1010,2019/2/4,16:49,41-55.79N,143-26.04E,25,0.594,32.5112,8.01
1011,2019/2/4,16:50,41-56.10N,143-26.23E,22,0.522,32.5021,8.02
1012,2019/2/4,16:51,41-56.39N,143-26.38E,22,0.445,32.4868,8.02
1013,2019/2/4,16:52,41-56.71N,143-26.56E,23,0.396,32.4715,8.02
1014,2019/2/4,16:53,41-57.02N,143-26.75E,25,0.354,32.4564,8.02
1015,2019/2/4,16:54,41-57.34N,143-26.95E,25,0.314,32.4484,8.02
1016,2019/2/4,16:55,41-57.63N,143-27.16E,28,0.275,32.4425,8.02
1017,2019/2/4,16:56,41-57.97N,143-27.40E,27,0.255,32.4315,8.01
1018,2019/2/4,16:57,41-58.25N,143-27.58E,25,0.239,32.4254,8.02
1019,2019/2/4,16:58,41-58.53N,143-27.77E,26,0.215,32.4214,8.02
1020,2019/2/4,16:59,41-58.89N,143-27.99E,24,0.208,32.4152,8.01
1021,2019/2/4,17:00,41-59.16N,143-28.17E,28,0.202,32.4112,8.02
1022,2019/2/4,17:01,41-59.46N,143-28.40E,28,0.194,32.4091,8.01
1023,2019/2/4,17:02,41-59.78N,143-28.63E,27,0.194,32.4058,8.01
1024,2019/2/4,17:03,42-00.14N,143-28.86E,25,0.191,32.4038,8.02
1025,2019/2/4,17:04,42-00.42N,143-29.04E,27,0.207,32.4034,8.01
1026,2019/2/4,17:05,42-00.73N,143-29.26E,27,0.195,32.4046,8.01
1027,2019/2/4,17:06,42-01.09N,143-29.52E,28,0.211,32.4071,8.02
1028,2019/2/4,17:07,42-01.41N,143-29.75E,27,0.216,32.4081,8.02
1029,2019/2/4,17:08,42-01.69N,143-29.95E,28,0.228,32.4097,8.02
1030,2019/2/4,17:09,42-02.02N,143-30.21E,28,0.242,32.413,8.01
1031,2019/2/4,17:10,42-02.34N,143-30.42E,26,0.332,32.4165,8.01
1032,2019/2/4,17:11,42-02.69N,143-30.65E,26,0.374,32.4251,8.02
1033,2019/2/4,17:12,42-03.00N,143-30.88E,30,0.431,32.4373,8.02
1034,2019/2/4,17:13,42-03.32N,143-31.15E,32,0.444,32.4485,8.01
1035,2019/2/4,17:14,42-03.63N,143-31.42E,32,0.455,32.4579,8.02
1036,2019/2/4,17:15,42-03.96N,143-31.70E,32,0.414,32.4663,8.01
1037,2019/2/4,17:16,42-04.25N,143-31.94E,31,0.4,32.4626,8.01
1038,2019/2/4,17:17,42-04.59N,143-32.24E,32,0.398,32.4556,8.02
1039,2019/2/4,17:18,42-04.91N,143-32.50E,31,0.407,32.4494,8.02
1040,2019/2/4,17:19,42-05.19N,143-32.74E,32,0.424,32.4474,8.02
1041,2019/2/4,17:20,42-05.55N,143-33.05E,32,0.404,32.4484,8.02
1042,2019/2/4,17:21,42-05.80N,143-33.25E,31,0.429,32.4495,8.02
1043,2019/2/4,17:22,42-06.12N,143-33.52E,33,0.414,32.4445,8.01
1044,2019/2/4,17:23,42-06.45N,143-33.80E,32,0.39,32.4453,8.02
1045,2019/2/4,17:24,42-06.74N,143-34.05E,31,0.396,32.4421,8.02
1046,2019/2/4,17:25,42-07.06N,143-34.31E,31,0.451,32.4394,8.02
1047,2019/2/4,17:26,42-07.39N,143-34.60E,33,0.52,32.4497,8.02
1048,2019/2/4,17:27,42-07.66N,143-34.82E,31,0.576,32.463,8.01
1049,2019/2/4,17:28,42-07.98N,143-35.09E,31,0.646,32.4823,8.02
1050,2019/2/4,17:29,42-08.27N,143-35.34E,32,0.683,32.4976,8.02
1051,2019/2/4,17:30,42-08.61N,143-35.63E,32,0.692,32.5148,8.01
1052,2019/2/4,17:31,42-08.90N,143-35.86E,30,0.633,32.5234,8.01
1053,2019/2/4,17:32,42-09.21N,143-36.11E,30,0.487,32.5251,8.01
1054,2019/2/4,17:33,42-09.54N,143-36.37E,30,0.262,32.5045,8.01
1055,2019/2/4,17:34,42-09.91N,143-36.65E,30,0.155,32.4477,8.01
1056,2019/2/4,17:35,42-10.20N,143-36.88E,30,0.122,32.4113,8.02
1057,2019/2/4,17:36,42-10.50N,143-37.13E,31,0.126,32.3882,8.02
1058,2019/2/4,17:37,42-10.85N,143-37.41E,30,0.146,32.3768,8.02
1059,2019/2/4,17:38,42-11.10N,143-37.61E,30,0.141,32.3729,8.02
1060,2019/2/4,17:39,42-11.42N,143-37.87E,30,0.15,32.3704,8.02
1061,2019/2/4,17:40,42-11.76N,143-38.14E,31,0.161,32.369,8.02
1062,2019/2/4,17:41,42-12.07N,143-38.39E,30,0.177,32.3661,8.01
1063,2019/2/4,17:42,42-12.38N,143-38.65E,31,0.181,32.3653,8.02
1064,2019/2/4,17:43,42-12.72N,143-38.92E,31,0.181,32.3668,8.02
1065,2019/2/4,17:44,42-13.02N,143-39.17E,31,0.158,32.3678,8.02
1066,2019/2/4,17:45,42-13.37N,143-39.45E,31,0.127,32.3684,8.02
1067,2019/2/4,17:46,42-13.68N,143-39.70E,31,0.072,32.3645,8.02
1068,2019/2/4,17:47,42-13.99N,143-39.96E,31,0.038,32.3576,8.02
1069,2019/2/4,17:48,42-14.32N,143-40.23E,31,0.024,32.3496,8.02
1070,2019/2/4,17:49,42-14.62N,143-40.47E,31,0.028,32.35,8.02
1071,2019/2/4,17:50,42-14.98N,143-40.77E,31,0.047,32.3526,8.02
1072,2019/2/4,17:51,42-15.33N,143-41.05E,31,0.042,32.3555,8.03
1073,2019/2/4,17:52,42-15.68N,143-41.34E,32,0.033,32.3573,8.01
1074,2019/2/4,17:53,42-15.90N,143-41.52E,32,0.024,32.3587,8.02
1075,2019/2/4,17:54,42-16.25N,143-41.81E,31,0.02,32.36,8.02
1076,2019/2/4,17:55,42-16.62N,143-42.11E,32,0.002,32.3602,8.01
1077,2019/2/4,17:56,42-16.84N,143-42.29E,31,-0.002,32.3609,8.02
1078,2019/2/4,17:57,42-17.24N,143-42.62E,31,0,32.3614,8.02
1079,2019/2/4,17:58,42-17.48N,143-42.82E,31,0.021,32.3614,8.02
1080,2019/2/4,17:59,42-17.77N,143-43.06E,31,0.05,32.363,8.02
1081,2019/2/4,18:00,42-18.08N,143-43.31E,31,0.076,32.3624,8.02
1082,2019/2/4,18:01,42-18.44N,143-43.61E,31,0.083,32.3632,8.02
1083,2019/2/4,18:02,42-18.77N,143-43.88E,31,0.083,32.3643,8.02
1084,2019/2/4,18:03,42-19.09N,143-44.14E,31,0.078,32.3638,8.02
1085,2019/2/4,18:04,42-19.40N,143-44.39E,30,0.078,32.364,8.02
1086,2019/2/4,18:05,42-19.69N,143-44.62E,31,0.079,32.3652,8.01
1087,2019/2/4,18:06,42-20.10N,143-44.94E,31,0.1,32.3668,8.02
1088,2019/2/4,18:07,42-20.33N,143-45.14E,31,0.105,32.3669,8.02
1089,2019/2/4,18:08,42-20.68N,143-45.42E,32,0.105,32.3679,8.02
1090,2019/2/4,18:09,42-20.93N,143-45.63E,31,0.11,32.3687,8.02
1091,2019/2/4,18:10,42-21.34N,143-45.96E,30,0.12,32.3679,8.02